Terminal Aerodrome Forecast
Issued by NWS Milwaukee/Sullivan, WI

Home | Current Version | Previous Version | Text Only | Print | Product List | Glossary On
Versions: 1 2 3 4 5 6 7 8 9 10 11 12 13 14 15 16 17 18 19 20 21 22 23 24 25 26 27 28 29 30 31 32 33 34 35 36 37 38 39 40 41 42 43 44 45 46 47 48
000
FTUS43 KMKX 271725
TAFMKE
TAF
KMKE 271725Z 2718/2824 24006KT P6SM BKN040
     FM272000 15007KT P6SM BKN035
     FM272300 12006KT P6SM VCTS BKN035CB
     FM280300 06004KT P6SM BKN200 PROB30 2803/2809 4SM TSRA OVC040CB
     FM281400 04008KT P6SM BKN070
     FM282000 03012KT P6SM BKN090=

USA.gov is the U.S. government's official web portal to all federal, state and local government web resources and services.